This demonstration page uses our WeatherBlox Daily Observations layout. Learn more.

39.92423, -83.80882

Hourly Observations for December 25, 2018

Temp ( °F °C ) Dew Point ( °F °C ) Humidity (%) Winds ( mph kmh ) Pressure ( in mb ) Visibility ( mi km ) Precip ( " mm )
12:56 am 00:56 Clear 26 -3.3 24 -4.4 92 92 ESE 3 6 30.31 1027 10 16.0934 0 0
1:56 am 01:56 Partly Cloudy 26 -3.3 24 -4.4 92 92 ESE 5 7 30.32 1027 10 16.0934 0 0
2:56 am 02:56 Partly Cloudy 27 -2.8 25 -3.9 92 92 ESE 6 9 30.32 1027 10 16.0934 0 0
3:56 am 03:56 Cloudy 26 -3.3 24 -4.4 92 92 E 7 11 30.32 1027 10 16.0934 0 0
4:56 am 04:56 Mostly Cloudy 27 -2.8 24 -4.4 89 89 SE 5 7 30.32 1027 10 16.0934 0 0
5:56 am 05:56 Mostly Cloudy 27 -2.8 25 -3.9 92 92 E 5 7 30.33 1027 10 16.0934 0 0
6:56 am 06:56 Cloudy 28 -2.2 25 -3.9 88 88 ESE 8 13 30.34 1027 10 16.0934 0 0
7:56 am 07:56 Cloudy 29 -1.7 26 -3.3 89 89 ESE 8 13 30.33 1027 10 16.0934 0 0
8:56 am 08:56 Cloudy 30 -1.1 27 -2.8 88 88 ESE 7 11 30.36 1028 10 16.0934 0 0
9:56 am 09:56 Cloudy 31 -0.6 28 -2.2 89 89 S 6 9 30.39 1029 10 16.0934 0 0
10:43 am 10:43 Cloudy with Light Snow 30 -1 28 -2 93 93 S 7 11 30.42 1030 8 12.87472 0 0.0254
10:56 am 10:56 Cloudy with Light Wintry Mix 31 -0.6 30 -1.1 96 96 S 5 7 30.4 1029 7 11.26538 0 0.0254
11:56 am 11:56 Cloudy 35 1.7 33 0.6 93 93 VRB 3 6 30.37 1029 10 16.0934 0 0.0254
12:03 pm 12:03 Cloudy 34 1 34 1 100 100 SSE 3 6 30.36 1028 10 16.0934 0 0
12:56 pm 12:56 Cloudy 36 2.2 33 0.6 89 89 Calm 30.36 1028 10 16.0934 0 0
1:18 pm 13:18 Cloudy with Light Rain 36 2 34 1 93 93 Calm 30.36 1028 10 16.0934 0 0.0254
1:44 pm 13:44 Cloudy 36 2 34 1 93 93 Calm 30.36 1028 10 16.0934 0 0.0254
1:56 pm 13:56 Cloudy 37 2.8 33 0.6 86 86 WSW 3 6 30.35 1028 10 16.0934 0 0.0254
2:11 pm 14:11 Cloudy 37 3 34 1 87 87 Calm 30.36 1028 10 16.0934 0 0
2:56 pm 14:56 Cloudy 37 2.8 34 1.1 89 89 Calm 30.35 1028 10 16.0934 0 0
3:56 pm 15:56 Mostly Sunny 39 3.9 33 0.6 79 79 Calm 30.36 1028 10 16.0934 0 0
4:56 pm 16:56 Mostly Sunny 37 2.8 32 0 82 82 ESE 3 6 30.37 1028 10 16.0934 0 0
5:56 pm 17:56 Clear 34 1.1 32 0 92 92 SSE 3 6 30.39 1029 10 16.0934 0 0
6:56 pm 18:56 Clear 32 0 31 -0.6 96 96 Calm 30.4 1030 10 16.0934 0 0
7:56 pm 19:56 Clear 30 -1.1 30 -1.1 100 100 SSE 5 7 30.4 1030 9 14.48406 0 0
8:56 pm 20:56 Clear 32 0 32 0 100 100 S 6 9 30.41 1030 10 16.0934 0 0
9:56 pm 21:56 Clear with Mist and Fog 30 -1.1 30 -1.1 100 100 SSE 6 9 30.41 1030 5 8.0467 0 0
10:56 pm 22:56 Clear with Mist and Fog 28 -2.2 28 -2.2 100 100 S 5 7 30.42 1030 6 9.65604 0 0
11:14 pm 23:14 Mostly Cloudy with Mist and Fog 27 -3 27 -3 100 100 Calm 30.45 1031 0.75 1.207005 0 0
11:19 pm 23:19 Mostly Cloudy with Freezing Fog 25 -4 25 -4 100 100 Calm 30.45 1031 0.25 0.402335 0 0
11:48 pm 23:48 Clear with Freezing Fog 25 -4 25 -4 100 100 ESE 3 6 30.45 1031 0.5 0.80467 0 0
11:53 pm 23:53 Clear with Mist and Fog 25 -4 25 -4 100 100 ESE 3 6 30.45 1031 1 1.60934 0 0

Powered by AerisWeather